CAPE
0 0 0 0 0 0 0 0 0 0 0 0 0 0 0 0 0 0 0 0 0 0 96 612 719 766 842 939 800 604 573 718 460 478 269 203 105 20 2 4 65 110 90 7 0 1 1 0 1
0 0 0 0 0 0 0 0 0 0 0 0 0 0 0 0 0 0 0 0 0 0 19 235 523 704 819 808 752 726 714 624 570 346 118 33 9 10 4 2 1 3 4 2 1 0 0 0 0
0 0 0 0 0 0 0 0 0 0 0 0 0 0 0 0 0 0 0 0 0 0 0 16 252 476 672 800 686 664 689 489 209 22 4 4 1 3 2 2 2 2 1 0 0 0 0 0 0
0 0 0 0 0 0 0 0 0 0 0 0 0 0 0 0 0 0 0 0 0 0 0 0 71 195 392 474 562 393 480 128 2 3 4 6 2 1 0 0 0 0 0 0 0 0 0 0 0
0 0 0 0 0 0 0 0 0 0 0 0 0 0 0 0 0 0 0 0 0 0 0 0 0 24 46 75 179 140 79 9 1 5 8 5 1 0 0 0 0 0 0 0 0 0 0 0 0
0 0 0 0 0 0 0 0 0 0 0 0 0 0 0 0 0 0 0 0 0 0 0 0 0 0 4 4 21 5 3 3 4 5 4 0 0 0 0 0 0 0 0 0 0 0 0 0 0
0 0 0 0 0 0 0 0 0 0 0 0 0 0 0 0 0 0 0 0 0 0 0 0 0 0 2 2 4 2 3 2 2 1 0 0 0 0 0 0 0 0 0 0 0 0 0 0 0
0 0 0 0 0 0 0 0 0 0 0 0 0 0 0 0 0 0 0 0 0 0 0 0 0 0 0 0 0 0 0 0 0 0 0 0 0 0 0 0 0 0 0 0 0 0 0 0 0
0 0 0 0 0 0 0 0 0 0 0 0 0 0 0 0 0 0 0 0 0 0 0 0 0 0 0 0 0 0 0 0 0 0 0 0 0 0 0 0 0 0 0 0 0 0 0 0 0
0 0 0 0 0 0 0 0 0 0 0 0 0 0 0 0 0 0 0 0 0 0 0 0 0 0 0 0 0 0 0 0 0 0 0 0 0 0 0 0 0 0 0 0 0 0 0 0 0
0 0 0 0 0 0 0 0 0 0 0 0 0 0 0 0 0 0 0 0 0 0 0 0 0 0 0 0 0 0 0 0 0 0 0 0 0 0 0 0 0 0 0 0 0 0 0 0 0
0 0 0 0 0 0 0 0 0 0 0 0 0 0 0 0 0 0 0 0 0 0 0 0 0 0 0 0 0 0 0 0 0 0 0 0 0 0 0 0 0 0 0 0 0 0 0 0 0
0 0 0 0 0 0 0 0 0 0 0 0 0 0 0 0 0 0 0 0 0 0 0 0 0 0 0 0 0 0 0 0 0 0 0 0 0 0 0 0 0 0 0 0 0 0 0 0 0
0 0 0 0 0 0 0 0 0 0 0 0 0 0 0 0 0 0 0 0 0 0 0 0 0 0 0 0 0 0 0 0 0 0 0 0 0 0 0 0 0 0 0 0 0 0 0 0 0
0 0 0 0 0 0 0 0 0 0 0 0 0 0 0 0 0 0 0 0 0 0 0 0 0 0 0 0 0 0 0 0 0 0 0 0 0 0 0 0 0 0 0 0 0 0 0 0 0
0 0 0 0 0 0 0 0 0 0 0 0 0 0 0 0 0 0 0 0 0 0 0 0 0 0 0 0 0 0 0 0 0 0 0 0 0 0 0 0 0 0 0 0 0 0 0 0 0
0 0 0 0 0 0 0 0 0 0 0 0 0 0 0 0 0 0 0 0 0 0 0 0 0 0 0 0 0 0 0 0 0 0 0 0 0 0 0 0 0 0 0 0 0 0 0 0 0
0 0 0 0 0 0 0 0 0 0 0 0 0 0 0 0 0 0 0 0 0 0 0 0 0 0 0 0 0 0 0 0 0 0 0 0 0 0 0 0 0 0 0 0 0 0 0 0 0
0 0 0 0 0 0 0 0 0 0 0 0 0 0 0 0 0 0 0 0 0 0 0 0 0 0 0 0 0 0 0 0 0 0 0 0 0 0 0 0 0 0 0 0 0 0 0 0 0
0 0 0 0 0 0 0 0 0 0 0 0 0 0 0 0 0 0 0 0 0 0 0 0 0 0 0 0 0 0 0 0 0 0 0 0 0 0 0 0 0 0 0 0 0 0 0 0 0
0 0 0 0 0 0 0 0 0 0 0 0 0 0 0 0 0 0 0 0 0 0 0 0 0 0 0 0 0 0 0 0 0 0 0 0 0 0 0 0 0 0 0 0 0 0 0 0 0
0 0 0 0 0 0 0 0 0 0 0 0 0 0 0 0 0 0 0 0 0 0 0 0 0 0 0 0 0 0 0 0 0 0 0 0 0 0 0 0 0 0 0 0 0 0 0 0 0
0 0 0 0 0 0 0 0 0 0 0 0 0 0 0 0 0 0 0 0 0 0 0 0 0 0 0 0 0 0 0 0 0 0 0 0 0 0 0 0 0 0 0 0 0 0 0 0 0
0 0 0 0 0 0 0 0 0 0 0 0 0 0 0 0 0 0 0 0 0 0 0 0 0 0 0 0 0 0 0 0 0 0 0 0 0 0 0 0 0 0 0 0 0 0 0 0 0
0 0 0 0 0 0 0 0 0 0 0 0 0 0 0 0 0 0 0 0 0 0 0 0 0 0 0 0 0 0 0 0 0 0 0 0 0 0 0 0 0 0 0 0 0 0 0 0 0
0 0 0 0 0 0 0 0 0 0 0 0 0 0 0 0 0 0 0 0 0 0 0 0 0 0 0 0 0 0 0 0 0 0 0 0 0 0 0 0 0 0 0 0 0 0 0 0 0
0 0 0 0 0 0 0 0 0 0 0 0 0 0 0 0 0 0 0 0 0 0 0 0 0 0 0 0 0 0 0 0 0 0 0 0 0 0 0 0 0 0 0 0 0 0 0 0 0
0 0 0 0 0 0 0 0 0 0 0 0 0 0 0 0 0 0 0 0 0 0 0 0 0 0 0 0 0 0 0 0 0 0 0 0 0 0 0 0 0 0 0 0 0 0 0 0 0
0 0 0 0 0 0 0 0 0 0 0 0 0 0 0 0 0 0 0 0 0 0 0 0 0 0 0 0 0 0 0 0 0 0 0 0 0 0 0 0 0 0 0 0 0 0 0 0 0
0 0 0 0 0 0 0 0 0 0 0 0 0 0 0 0 0 0 0 0 0 0 0 0 0 0 0 0 0 0 0 0 0 0 0 0 0 0 0 0 0 0 0 0 0 0 0 0 0
CIN
0 0 0 0 0 0 0 0 0 0 0 0 0 0 0 0 0 0 0 0 0 0 -500 -203 -133 -75 -36 -6 -7 -27 -13 -2 -17 -10 -30 -72 -89 -104 -2 -1 -65 -74 -92 -4 0 0 0 0 0
0 0 0 0 0 0 0 0 0 0 0 0 0 0 0 0 0 0 0 0 0 0 -531 -352 -204 -113 -53 -33 -23 -20 -10 -14 -13 -56 -114 -88 -2 -2 -2 0 -1 -1 -1 -1 0 0 0 0 0
0 0 0 0 0 0 0 0 0 0 0 0 0 0 0 0 0 0 0 0 0 0 0 -536 -297 -180 -97 -53 -47 -40 -25 -74 -158 -277 -99 0 -1 0 0 0 0 0 0 0 0 0 0 0 0
0 0 0 0 0 0 0 0 0 0 0 0 0 0 0 0 0 0 0 0 0 0 0 0 -403 -283 -176 -121 -96 -120 -75 -226 -6 0 -1 0 0 0 0 0 0 0 0 0 0 0 0 0 0
0 0 0 0 0 0 0 0 0 0 0 0 0 0 0 0 0 0 0 0 0 0 0 0 0 -354 -343 -292 -197 -195 -241 -282 0 0 0 0 0 0 0 0 0 0 0 0 0 0 0 0 0
0 0 0 0 0 0 0 0 0 0 0 0 0 0 0 0 0 0 0 0 0 0 0 0 0 0 0 -203 -327 0 0 0 0 0 0 0 0 0 0 0 0 0 0 0 0 0 0 0 0
0 0 0 0 0 0 0 0 0 0 0 0 0 0 0 0 0 0 0 0 0 0 0 0 0 0 -1 0 0 0 0 0 0 0 0 0 0 0 0 0 0 0 0 0 0 0 0 0 0
0 0 0 0 0 0 0 0 0 0 0 0 0 0 0 0 0 0 0 0 0 0 0 0 0 0 0 0 0 0 0 0 0 0 0 0 0 0 0 0 0 0 0 0 0 0 0 0 0
0 0 0 0 0 0 0 0 0 0 0 0 0 0 0 0 0 0 0 0 0 0 0 0 0 0 0 0 0 0 0 0 0 0 0 0 0 0 0 0 0 0 0 0 0 0 0 0 0
0 0 0 0 0 0 0 0 0 0 0 0 0 0 0 0 0 0 0 0 0 0 0 0 0 0 0 0 0 0 0 0 0 0 0 0 0 0 0 0 0 0 0 0 0 0 0 0 0
0 0 0 0 0 0 0 0 0 0 0 0 0 0 0 0 0 0 0 0 0 0 0 0 0 0 0 0 0 0 0 0 0 0 0 0 0 0 0 0 0 0 0 0 0 0 0 0 0
0 0 0 0 0 0 0 0 0 0 0 0 0 0 0 0 0 0 0 0 0 0 0 0 0 0 0 0 0 0 0 0 0 0 0 0 0 0 0 0 0 0 0 0 0 0 0 0 0
0 0 0 0 0 0 0 0 0 0 0 0 0 0 0 0 0 0 0 0 0 0 0 0 0 0 0 0 0 0 0 0 0 0 0 0 0 0 0 0 0 0 0 0 0 0 0 0 0
0 0 0 0 0 0 0 0 0 0 0 0 0 0 0 0 0 0 0 0 0 0 0 0 0 0 0 0 0 0 0 0 0 0 0 0 0 0 0 0 0 0 0 0 0 0 0 0 0
0 0 0 0 0 0 0 0 0 0 0 0 0 0 0 0 0 0 0 0 0 0 0 0 0 0 0 0 0 0 0 0 0 0 0 0 0 0 0 0 0 0 0 0 0 0 0 0 0
0 0 0 0 0 0 0 0 0 0 0 0 0 0 0 0 0 0 0 0 0 0 0 0 0 0 0 0 0 0 0 0 0 0 0 0 0 0 0 0 0 0 0 0 0 0 0 0 0
0 0 0 0 0 0 0 0 0 0 0 0 0 0 0 0 0 0 0 0 0 0 0 0 0 0 0 0 0 0 0 0 0 0 0 0 0 0 0 0 0 0 0 0 0 0 0 0 0
0 0 0 0 0 0 0 0 0 0 0 0 0 0 0 0 0 0 0 0 0 0 0 0 0 0 0 0 0 0 0 0 0 0 0 0 0 0 0 0 0 0 0 0 0 0 0 0 0
0 0 0 0 0 0 0 0 0 0 0 0 0 0 0 0 0 0 0 0 0 0 0 0 0 0 0 0 0 0 0 0 0 0 0 0 0 0 0 0 0 0 0 0 0 0 0 0 0
0 0 0 0 0 0 0 0 0 0 0 0 0 0 0 0 0 0 0 0 0 0 0 0 0 0 0 0 0 0 0 0 0 0 0 0 0 0 0 0 0 0 0 0 0 0 0 0 0
0 0 0 0 0 0 0 0 0 0 0 0 0 0 0 0 0 0 0 0 0 0 0 0 0 0 0 0 0 0 0 0 0 0 0 0 0 0 0 0 0 0 0 0 0 0 0 0 0
0 0 0 0 0 0 0 0 0 0 0 0 0 0 0 0 0 0 0 0 0 0 0 0 0 0 0 0 0 0 0 0 0 0 0 0 0 0 0 0 0 0 0 0 0 0 0 0 0
0 0 0 0 0 0 0 0 0 0 0 0 0 0 0 0 0 0 0 0 0 0 0 0 0 0 0 0 0 0 0 0 0 0 0 0 0 0 0 0 0 0 0 0 0 0 0 0 0
0 0 0 0 0 0 0 0 0 0 0 0 0 0 0 0 0 0 0 0 0 0 0 0 0 0 0 0 0 0 0 0 0 0 0 0 0 0 0 0 0 0 0 0 0 0 0 0 0
0 0 0 0 0 0 0 0 0 0 0 0 0 0 0 0 0 0 0 0 0 0 0 0 0 0 0 0 0 0 0 0 0 0 0 0 0 0 0 0 0 0 0 0 0 0 0 0 0
0 0 0 0 0 0 0 0 0 0 0 0 0 0 0 0 0 0 0 0 0 0 0 0 0 0 0 0 0 0 0 0 0 0 0 0 0 0 0 0 0 0 0 0 0 0 0 0 0
0 0 0 0 0 0 0 0 0 0 0 0 0 0 0 0 0 0 0 0 0 0 0 0 0 0 0 0 0 0 0 0 0 0 0 0 0 0 0 0 0 0 0 0 0 0 0 0 0
0 0 0 0 0 0 0 0 0 0 0 0 0 0 0 0 0 0 0 0 0 0 0 0 0 0 0 0 0 0 0 0 0 0 0 0 0 0 0 0 0 0 0 0 0 0 0 0 0
0 0 0 0 0 0 0 0 0 0 0 0 0 0 0 0 0 0 0 0 0 0 0 0 0 0 0 0 0 0 0 0 0 0 0 0 0 0 0 0 0 0 0 0 0 0 0 0 0
0 0 0 0 0 0 0 0 0 0 0 0 0 0 0 0 0 0 0 0 0 0 0 0 0 0 0 0 0 0 0 0 0 0 0 0 0 0 0 0 0 0 0 0 0 0 0 0 0
Wind_Speed
13 14 14 13 12 13 10 11 11 11 12 12 14 12 10 12 12 11 18 12 11 15 16 14 14 16 16 16 16 18 20 20 19 18 16 13 10 13 18 16 13 12 12 13 14 14 15 15 16
13 12 14 13 13 13 12 12 11 9 11 12 12 10 9 8 7 12 13 8 9 13 13 12 12 11 11 13 14 15 15 13 13 11 10 9 9 10 10 9 11 12 12 13 13 14 15 15 16
13 15 12 14 14 14 14 12 10 10 10 11 11 10 9 10 9 9 9 10 8 9 9 9 9 9 9 9 9 11 11 10 7 7 10 10 9 9 9 9 10 10 11 12 13 14 15 15 16
14 14 16 12 9 8 9 8 9 8 10 9 10 8 8 7 10 9 10 11 9 9 7 6 5 7 6 6 6 6 6 6 7 8 9 7 7 8 9 10 11 11 11 12 14 14 15 15 16
16 16 13 13 10 9 7 6 9 9 11 12 12 8 8 9 8 9 10 12 12 10 8 6 5 5 6 7 5 5 5 4 5 6 6 6 7 8 9 9 10 11 12 13 14 14 15 16 16
15 15 16 15 13 13 10 8 11 11 11 12 13 8 8 11 9 8 9 11 11 11 10 10 8 6 4 5 5 4 4 3 2 3 4 5 6 7 8 9 10 11 11 12 13 14 15 16 16
14 16 16 17 18 20 17 16 14 14 13 11 14 15 13 13 9 10 8 8 8 8 9 9 9 9 7 5 3 2 2 1 1 1 2 4 6 7 8 9 9 10 11 11 13 14 15 16 17
14 16 18 17 20 20 19 17 16 15 16 16 14 15 17 16 12 9 7 6 5 5 6 7 7 7 7 5 5 3 1 1 2 3 4 5 6 7 8 8 8 9 9 11 12 13 14 16 18
14 17 19 20 20 20 18 20 18 17 18 17 14 12 16 17 12 9 6 4 1 3 6 6 6 5 6 5 5 4 3 2 2 3 4 5 7 8 9 9 8 8 9 11 12 14 15 16 18
16 19 20 17 19 21 22 22 23 21 20 21 18 15 15 16 12 9 6 4 4 6 7 6 6 6 6 5 4 4 3 3 3 4 4 5 6 7 8 10 8 9 10 12 13 14 16 17 18
17 19 20 20 19 21 26 26 23 23 24 21 21 22 19 16 13 11 10 9 9 8 7 8 8 7 7 7 6 6 5 5 5 5 4 4 6 8 9 9 10 11 12 13 14 16 17 18 19
21 19 19 22 22 25 27 29 27 20 15 26 21 23 23 17 11 10 12 12 12 11 11 12 11 10 10 9 9 8 8 8 7 7 6 6 6 7 7 8 10 11 12 13 14 15 17 18 19
17 23 24 23 25 25 28 23 18 17 20 32 28 22 16 14 11 11 12 16 17 15 14 14 14 14 13 13 13 11 11 11 10 9 8 8 8 8 7 8 9 10 11 12 14 15 17 19 20
25 24 27 30 29 28 26 19 18 17 28 34 29 23 19 14 13 12 12 13 14 16 16 16 16 17 16 16 16 15 14 14 13 12 11 10 10 9 9 9 10 10 11 13 14 16 18 20 21
25 33 34 21 33 29 23 23 16 18 36 37 43 30 33 18 19 15 14 15 15 16 18 17 18 17 18 19 18 18 18 17 16 15 13 12 11 11 11 11 11 11 12 12 13 15 17 19 20
33 32 39 33 27 26 24 26 26 34 28 29 30 31 33 26 27 22 20 20 21 21 19 18 18 18 19 19 20 20 20 19 18 17 15 14 13 12 13 13 13 12 11 11 12 14 17 19 22
31 37 31 35 26 30 25 33 25 33 34 27 24 25 34 28 37 26 31 32 29 24 22 20 19 19 20 19 20 20 20 20 19 19 17 16 16 15 15 14 13 13 13 13 14 17 19 21 23
33 33 34 36 36 34 35 30 29 30 33 32 28 33 40 29 32 50 39 34 29 25 22 21 21 20 19 19 20 20 20 20 20 20 19 18 18 16 16 16 15 14 14 14 15 17 20 22 24
35 36 37 40 38 43 38 34 31 26 25 37 39 26 24 24 34 36 36 31 28 25 21 18 19 19 19 20 21 22 22 21 22 22 20 20 19 19 18 17 17 15 14 14 15 18 20 22 23
36 40 43 48 41 38 45 37 50 28 29 22 28 36 28 45 44 40 34 27 24 23 20 19 19 19 20 22 22 23 20 21 21 20 21 21 20 19 19 19 19 16 15 14 15 17 20 21 21
36 37 41 43 46 43 51 60 38 29 25 18 16 17 25 18 12 39 37 33 29 25 19 16 17 18 18 19 19 22 19 21 21 21 22 22 21 21 21 20 19 17 16 16 15 15 17 19 21
41 36 40 44 46 46 36 63 36 33 27 39 30 28 24 30 35 40 43 39 33 30 20 17 16 16 16 16 18 21 23 23 22 22 22 22 21 21 20 20 19 18 17 17 16 15 17 18 19
38 33 36 37 40 45 37 41 46 37 37 34 30 24 34 42 38 47 45 43 37 28 23 19 16 16 18 18 18 20 22 25 22 22 23 23 23 22 22 21 20 19 18 17 15 15 15 16 16
33 35 36 36 35 47 39 37 70 35 29 23 40 49 41 42 47 46 42 41 40 33 26 19 15 14 15 17 19 21 22 23 23 23 24 24 23 22 21 21 20 20 18 18 17 16 17 17 19
31 34 44 44 41 48 35 37 42 39 48 48 47 48 42 40 40 42 43 44 43 35 27 21 17 16 15 18 20 21 22 22 22 21 21 21 23 24 24 23 22 21 19 18 18 18 18 18 18
33 32 38 50 53 55 40 51 56 48 52 55 51 43 32 33 36 41 43 43 39 31 22 18 18 19 17 17 18 19 21 21 21 20 20 20 21 23 22 23 23 23 21 20 19 19 19 18 19
37 40 39 47 48 54 54 54 56 58 46 41 36 31 34 38 39 44 43 40 35 29 22 17 15 16 18 18 18 17 16 20 22 21 22 23 23 23 22 22 23 23 22 21 20 20 20 19 19
37 35 47 42 54 60 50 56 56 62 64 53 46 46 47 45 43 40 39 37 33 30 27 24 23 24 23 22 20 22 24 23 23 24 26 26 27 26 25 25 25 25 24 23 22 22 20 20 20
43 45 43 45 47 60 68 61 52 58 58 51 47 47 45 43 42 41 39 35 33 32 31 31 30 31 33 32 32 32 32 30 28 27 28 29 29 29 29 28 27 27 26 25 24 23 22 21 21
46 51 50 55 61 59 60 61 42 47 55 48 46 45 45 44 44 43 39 36 35 35 35 35 35 35 38 40 39 39 38 37 35 36 34 32 32 31 31 30 29 28 28 28 28 26 25 24 23
Wind_Direction
56 52 59 79 84 80 97 93 90 87 77 79 58 69 63 27 18 38 343 107 66 121 124 120 118 132 135 135 133 140 147 137 137 125 115 92 51 269 227 254 284 331 342 343 343 337 327 327 336
63 81 67 84 76 72 86 98 106 112 91 76 76 80 65 51 50 11 5 100 74 116 120 123 120 113 118 129 132 130 125 113 103 78 65 26 356 23 354 339 317 338 338 331 348 356 353 348 342
70 55 98 80 74 71 75 95 99 96 89 72 67 83 77 71 79 54 85 109 82 112 119 121 123 122 116 110 112 120 117 104 69 42 99 94 73 53 45 45 15 16 9 3 348 345 343 346 345
70 71 54 71 89 102 88 98 80 83 83 87 72 88 92 106 72 97 97 119 109 119 118 124 124 130 123 113 107 105 97 92 96 96 105 76 46 29 18 345 341 345 349 348 346 346 347 348 344
29 40 42 44 61 67 90 92 66 73 62 56 55 73 60 55 60 76 94 120 128 127 124 125 132 137 142 142 134 130 124 110 110 96 76 56 39 21 3 -0 355 350 347 345 345 347 348 348 345
25 26 14 21 28 31 45 54 40 47 48 39 31 44 48 47 55 61 89 121 123 130 133 137 141 144 149 156 157 150 145 131 113 73 56 33 15 7 5 0 354 353 355 357 357 355 354 351 351
8 5 359 358 359 359 13 20 21 18 22 25 22 10 27 36 69 66 81 94 105 119 128 137 145 149 151 157 171 185 168 166 127 79 33 4 360 357 351 351 354 354 354 354 352 354 353 350 347
3 357 348 352 350 351 358 5 6 8 0 3 8 7 358 8 27 38 55 83 106 120 134 142 144 149 154 156 162 169 205 227 286 310 322 335 337 338 346 353 357 357 357 352 350 348 348 345 342
360 341 336 338 342 345 352 347 352 354 346 346 347 345 347 350 4 7 9 9 106 166 169 164 167 170 167 166 166 169 180 203 257 295 305 315 323 323 324 329 345 350 351 348 345 344 343 342 340
336 329 330 340 338 335 335 335 335 336 336 332 332 333 336 338 337 327 316 276 243 223 206 207 197 192 190 198 202 208 231 225 255 279 288 300 311 316 320 322 334 339 342 342 342 340 338 336 334
329 320 325 324 324 327 326 326 329 328 328 329 330 332 333 330 324 311 294 284 250 251 258 235 235 226 217 221 225 229 237 245 257 253 256 279 298 304 308 314 319 324 329 332 334 333 331 330 329
317 315 317 322 324 324 321 321 319 318 273 321 323 324 324 323 309 298 293 281 276 273 266 266 252 243 241 250 241 237 240 240 241 246 252 263 278 288 297 304 310 317 321 326 329 331 332 332 330
310 314 314 314 316 316 317 310 302 280 259 314 318 320 312 312 295 293 289 298 296 281 276 265 257 251 251 247 257 250 244 244 242 239 243 254 260 270 284 296 306 314 320 325 327 329 331 330 330
319 317 315 314 314 313 309 292 320 266 317 313 317 316 314 304 293 301 291 262 276 281 273 270 254 252 253 247 250 250 254 253 251 249 244 245 255 262 273 283 294 303 312 318 322 326 328 327 328
319 312 314 312 312 313 318 310 280 278 313 310 303 313 311 308 312 287 275 273 273 272 278 263 259 254 245 244 250 255 258 258 254 250 247 240 245 253 263 274 283 294 304 313 321 327 330 331 330
310 311 307 314 321 321 317 299 264 316 318 316 313 312 312 307 306 297 291 282 292 289 271 267 259 251 246 246 253 258 256 254 253 250 246 240 243 247 259 267 275 287 296 306 315 322 325 328 328
309 304 304 309 314 313 305 308 311 315 316 311 300 288 308 278 283 290 299 297 295 285 277 266 256 250 248 252 257 257 256 253 253 251 246 241 243 247 255 261 268 277 286 294 305 312 317 319 322
305 306 307 307 314 309 305 284 298 306 308 270 273 268 266 274 268 294 304 303 299 293 278 268 262 256 253 259 261 263 259 255 256 252 249 245 246 245 249 257 262 269 277 286 297 305 312 315 318
303 302 301 305 309 307 302 290 297 286 293 266 266 277 283 270 267 314 309 308 306 299 291 271 263 257 254 254 252 261 247 250 252 251 244 242 246 245 247 253 257 262 267 276 290 300 305 311 317
299 301 301 303 307 307 307 285 303 286 269 283 264 264 274 281 291 282 317 320 316 308 294 282 269 263 256 257 256 267 254 260 253 251 246 244 242 242 245 249 251 253 261 272 281 292 301 310 317
300 301 302 303 308 307 306 294 309 318 318 294 298 298 327 332 313 314 319 319 319 317 309 291 274 266 260 261 259 270 269 274 259 253 250 244 240 240 243 244 246 248 257 265 272 284 296 305 314
298 302 302 303 305 306 314 279 308 317 319 309 314 321 329 328 324 320 316 317 317 314 310 301 288 272 260 251 252 251 258 259 256 251 251 244 237 234 233 238 243 247 256 263 271 280 292 302 305
300 306 303 303 301 303 304 303 305 315 315 313 313 328 325 323 323 316 315 314 314 314 312 302 288 276 268 256 251 250 257 263 268 260 254 250 246 242 239 239 243 248 254 259 264 272 283 294 299
306 304 302 301 300 293 297 298 280 308 316 321 315 313 322 322 324 324 326 323 316 312 310 305 292 281 274 266 264 260 262 264 263 261 256 253 250 241 237 237 240 246 249 254 260 268 277 285 294
297 298 297 295 292 290 303 292 286 297 301 304 310 314 317 324 330 332 331 328 326 318 311 307 296 289 283 274 271 268 266 261 258 255 253 248 247 247 244 240 243 247 248 253 261 266 273 279 285
293 290 288 292 292 292 295 287 287 297 300 304 308 310 318 326 332 336 336 337 334 329 322 311 298 293 287 278 273 270 270 268 265 262 257 250 248 246 245 247 251 252 253 256 260 266 272 277 282
295 287 294 290 290 290 288 288 291 294 302 313 318 319 323 321 322 325 328 332 339 339 331 324 312 306 297 288 280 270 262 267 270 267 263 261 259 256 249 244 248 253 251 253 256 262 266 273 277
290 297 291 292 291 289 289 288 291 293 295 305 308 309 311 314 316 321 326 329 332 337 335 327 317 312 306 295 287 279 276 273 272 271 268 265 262 258 255 254 252 253 255 254 254 261 265 265 271
290 288 289 291 287 288 290 288 293 294 298 307 312 310 312 316 318 319 321 324 326 326 326 318 313 312 303 294 288 283 282 280 280 277 272 269 266 259 257 256 255 253 253 253 254 258 259 261 266
290 288 287 284 288 286 288 287 295 300 302 313 313 313 312 312 313 315 315 316 318 320 318 316 312 312 302 293 289 287 284 283 283 280 277 271 265 261 258 257 257 256 254 254 253 255 257 256 259